Location: Fouquenies
(49.4624°N, 2.0492°E)
Time: 14:10:37
(UTC+00:00)

Cosmos 1943 Rocket - Pass Details

Date: 03 February 2023
Orbit: 811 x 844 km, 71.0° (Epoch: 21 March)

Event Time Altitude Azimuth Distance (km) Brightness Sun altitude
Rises 18:51:08 0° 334° (NNW) 3,415 5.7 -19.7°
Reaches altitude 10° 18:54:33 10° 354° (N) 2,477 4.7 -20.3°
Enters shadow 18:57:44 17° 29° (NNE) 2,036 3.9 -20.8°
